User: anonymous
Location: ASU Dark Sky Observatory
(36.2504°N, 81.4125°W)
Time: 09:41:07
(UTC-04:00)
Language:

ETS-7 - Orbit

View from above orbital plane
View from above orbital plane
View from above satellite
View from above satellite

Ground track
Ground track

The orbit data is extracted from the following two-line orbital elements,

1 25064U 97074B   14205.56623449  .00006449  00000-0  11348-3 0  2092
2 25064 034.9643 023.5516 0003499 041.4234 012.9788 15.49702066926971
Epoch (UTC): 24 July 2014 13:35:22
Eccentricity: 0.0003499
inclination: 34.9643°
perigee height: 415 km
apogee height: 420 km
right ascension of ascending node: 23.5516°
argument of perigee: 41.4234°
revolutions per day: 15.49702066
mean anomaly at epoch: 12.9788°
orbit number at epoch: 92697

The dashed part of the orbit path shows where the satellite is in the earth's shadow,  

DLR